Preview of NWS' New Version of Forecast
This preview is not operational and should not be used for support decisions.

Regional Weather Roundup (RWR)

Issued by National Weather Service (NWS)

                            
000
ASUS43 KTOP 220459
RWRKS 

WEATHER ROUNDUP FOR KANSAS
NATIONAL WEATHER SERVICE GOODLAND KS
1100 PM CST THU FEB 21 2019

NOTE:  "FAIR" INDICATES FEW OR NO CLOUDS BELOW 12,000 FEET WITH NO
SIGNIFICANT WEATHER AND/OR OBSTRUCTIONS TO VISIBILITY.

KSZ001>006-013>018-027>032-041>047-220600-
NORTHWEST KANSAS
  
CITY           SKY/WX    TMP DP  RH WIND       PRES   REMARKS
GOODLAND       CLOUDY    32  31  96 E17       29.93R FOG     WCI  21  
HAYS           CLEAR     30  28  92 E12       30.05R WCI  20          
HILL CITY      MOCLDY    31  27  85 E12       30.05R WCI  22          
RUSSELL        CLEAR     32  30  92 E14       30.06R WCI  22          
$$

KSZ061>065-074>080-084>089-220600-
SOUTHWEST KANSAS
  
CITY           SKY/WX    TMP DP  RH WIND       PRES   REMARKS
DODGE CITY     CLEAR     34  26  72 SE14      29.99R WCI  25          
GARDEN CITY    CLEAR     32  26  78 SE13      29.95R WCI  22          
GREAT BEND     CLEAR     33  30  88 E10       30.06R WCI  25          
LIBERAL        CLOUDY    39  26  59 SE12      29.95R WCI  32          
$$

KSZ066>073-081>083-090>101-220600-
SOUTHEAST KANSAS
  
CITY           SKY/WX    TMP DP  RH WIND       PRES   REMARKS
CHANUTE        CLOUDY    36  26  67 E12       30.15R WCI  28          
COFFEYVILLE    CLOUDY    34  28  79 NE6       30.13R                  
HUTCHINSON     CLEAR     33  29  85 E8        30.09R                  
MEDICINE LODGE   N/A     36  30  79 SE8       30.06R                  
NEWTON         CLEAR     31  27  85 E7        30.13R                  
PARSONS        PTCLDY    36  28  73 VRB5      30.15R                  
WICHITA INTL   PTCLDY    37  28  70 E10       30.10R WCI  30          
WICHITA JABRA  CLEAR     35  25  66 E7        30.11R                  
WICHITA MCCONL CLEAR     37  26  65 E9        30.09R                  
WINFIELD       CLOUDY    37  28  70 E8        30.12R                  
$$

KSZ007>012-019>026-033>040-048>060-102>105-220600-
NORTHEAST KANSAS
  
CITY           SKY/WX    TMP DP  RH WIND       PRES   REMARKS
CONCORDIA      CLEAR     31  24  75 E8        30.15R                  
EMPORIA        CLOUDY    32  26  78 E7        30.14R                  
LAWRENCE       CLOUDY    33  23  66 E10       30.20S WCI  25          
MANHATTAN      MOCLDY    34  24  67 NE8       30.18R                  
OLATHE IND     CLEAR     31  24  75 E9        30.20R                  
OLATHE EXE     CLEAR     30  22  72 E8        30.20R                  
SALINA         CLEAR     33  26  75 E9        30.13S                  
TOPEKA BILLARD CLOUDY    34  24  67 E10       30.20R WCI  26          
TOPEKA FORBES  CLOUDY    34  24  67 E8        30.18R                  
$$